Location: ??
(34.7252°N, 135.5457°E)
Time: 08:22:40
(UTC+00:00)

Cosmos 2322 - Pass Details

Date: 24 September 2020
Orbit: 841 x 854 km, 71.0° (Epoch: 28 October)

Event Time Altitude Azimuth Distance (km) Brightness Sun altitude
Exits shadow 19:22:44 - 200° (SSW) 2,513 5.9 -18.2°
Reaches altitude 10° 19:22:53 10° 200° (SSW) 2,453 5.8 -18.2°
Maximum altitude 19:28:32 88° 291° (WNW) 847 3.6 -17.1°
Drops below altitude 10° 19:34:12 10° 21° (NNE) 2,463 6.5 -15.9°
Sets 19:36:39 0° 21° (NNE) 3,401 7.3 -15.4°
